When you browse on this site, cookies collect data to enhance your experience and personalize the content and advertising you see.
Visit our Privacy Policy to learn more. By continuing to use the site, you agree to this use of cookies and data.
  • In Deutschland
  • Länderverzeichnis
  • Für 7 Tage
  • Wassertemperatur
  • Wetterkarte
  • Widgets
  • user-avatar
    Anmelden

    Stündliche Wetter Augsburg

    Heute, 20 August, Dienstag

    Zeit Temperatur Niederschläge Wind Luftdruck Luftfeuchtigkeit
    00:00 +18°C° 0.4 mm 1 m/S 722 mmHg 91%
    01:00 +18°C° 0.4 mm 1 m/S 722 mmHg 93%
    02:00 +17°C° 1 mm 2 m/S 722 mmHg 94%
    03:00 +16°C° 1 mm 2 m/S 722 mmHg 95%
    04:00 +16°C° 1 mm 2 m/S 722 mmHg 96%
    05:00 +16°C° 1.4 mm 2 m/S 722 mmHg 96%
    06:00 +16°C° 1.4 mm 1 m/S 722 mmHg 96%
    07:00 +16°C° 1.4 mm 1 m/S 722 mmHg 96%
    08:00 +16°C° 2.1 mm 1 m/S 722 mmHg 96%
    09:00 +16°C° 2.1 mm 2 m/S 722 mmHg 97%
    10:00 +16°C° 2.1 mm 2 m/S 722 mmHg 97%
    11:00 +16°C° 2 mm 3 m/S 722 mmHg 97%
    12:00 +16°C° 2 mm 3 m/S 722 mmHg 96%
    13:00 +14°C° 2 mm 3 m/S 723 mmHg 96%
    14:00 +14°C° 1.2 mm 3 m/S 723 mmHg 96%
    15:00 +14°C° 1.2 mm 3 m/S 723 mmHg 96%
    16:00 +14°C° 1.2 mm 3 m/S 723 mmHg 96%
    17:00 +14°C° 1.5 mm 3 m/S 724 mmHg 96%
    18:00 +14°C° 1.5 mm 2 m/S 724 mmHg 96%
    19:00 +14°C° 1.5 mm 2 m/S 725 mmHg 96%
    20:00 +14°C° 1.2 mm 2 m/S 725 mmHg 96%
    21:00 +13°C° 1.2 mm 2 m/S 726 mmHg 96%
    22:00 +13°C° 1.2 mm 2 m/S 726 mmHg 97%
    23:00 +13°C° 2.1 mm 2 m/S 726 mmHg 97%

    Morgen, 21 August, Mittwoch

    Zeit Temperatur Niederschläge Wind Luftdruck Luftfeuchtigkeit
    00:00 +13°C° 2.1 mm 2 m/S 727 mmHg 97%
    01:00 +13°C° 2.1 mm 2 m/S 727 mmHg 97%
    02:00 +13°C° 1.2 mm 1 m/S 727 mmHg 97%
    03:00 +13°C° 1.2 mm 1 m/S 727 mmHg 97%
    04:00 +11°C° 1.2 mm 0 m/S 727 mmHg 97%
    05:00 +13°C° 0.1 mm 1 m/S 727 mmHg 96%
    06:00 +13°C° 0.1 mm 1 m/S 727 mmHg 95%
    07:00 +13°C° 0.1 mm 1 m/S 727 mmHg 94%
    08:00 +14°C° 0 mm 2 m/S 727 mmHg 88%
    09:00 +16°C° 0 mm 2 m/S 727 mmHg 83%
    10:00 +17°C° 0 mm 3 m/S 727 mmHg 77%
    11:00 +18°C° 0 mm 3 m/S 727 mmHg 74%
    12:00 +19°C° 0 mm 4 m/S 726 mmHg 71%
    13:00 +20°C° 0 mm 4 m/S 726 mmHg 68%
    14:00 +20°C° 0 mm 4 m/S 726 mmHg 69%
    15:00 +20°C° 0 mm 4 m/S 725 mmHg 69%
    16:00 +20°C° 0 mm 4 m/S 725 mmHg 70%
    17:00 +19°C° 0 mm 4 m/S 725 mmHg 75%
    18:00 +18°C° 0 mm 3 m/S 725 mmHg 80%
    19:00 +17°C° 0 mm 3 m/S 725 mmHg 85%
    20:00 +16°C° 0 mm 3 m/S 725 mmHg 87%
    21:00 +14°C° 0 mm 3 m/S 725 mmHg 89%
    22:00 +15°C° 0 mm 2 m/S 725 mmHg 91%
    23:00 +13°C° 0 mm 3 m/S 725 mmHg 91%

    übermorgen, 22 August, Donnerstag

    Zeit Temperatur Niederschläge Wind Luftdruck Luftfeuchtigkeit
    00:00 +13°C° 0 mm 3 m/S 725 mmHg 92%
    01:00 +13°C° 0 mm 3 m/S 725 mmHg 92%
    02:00 +12°C° 0 mm 3 m/S 724 mmHg 93%
    03:00 +13°C° 0 mm 2 m/S 724 mmHg 94%
    04:00 +12°C° 0 mm 2 m/S 724 mmHg 94%
    05:00 +12°C° 0 mm 3 m/S 724 mmHg 93%
    06:00 +13°C° 0 mm 3 m/S 725 mmHg 91%
    07:00 +13°C° 0 mm 3 m/S 725 mmHg 90%
    08:00 +16°C° 0 mm 3 m/S 725 mmHg 86%
    09:00 +17°C° 0 mm 3 m/S 725 mmHg 82%
    10:00 +18°C° 0 mm 4 m/S 725 mmHg 78%
    11:00 +20°C° 0 mm 3 m/S 725 mmHg 76%
    12:00 +21°C° 0 mm 3 m/S 725 mmHg 73%
    13:00 +22°C° 0 mm 3 m/S 725 mmHg 70%
    14:00 +22°C° 0 mm 3 m/S 725 mmHg 70%
    15:00 +22°C° 0 mm 3 m/S 725 mmHg 70%
    16:00 +22°C° 0 mm 3 m/S 725 mmHg 70%
    17:00 +21°C° 0 mm 3 m/S 725 mmHg 74%
    18:00 +20°C° 0 mm 2 m/S 725 mmHg 78%
    19:00 +18°C° 0 mm 2 m/S 725 mmHg 83%
    20:00 +18°C° 0 mm 1 m/S 725 mmHg 84%
    21:00 +16°C° 0 mm 1 m/S 726 mmHg 85%
    22:00 +16°C° 0 mm 1 m/S 726 mmHg 86%
    23:00 +15°C° 0 mm 1 m/S 726 mmHg 88%

    23 August, Freitag

    Zeit Temperatur Niederschläge Wind Luftdruck Luftfeuchtigkeit
    00:00 +14°C° 0 mm 1 m/S 725 mmHg 89%
    01:00 +14°C° 0 mm 1 m/S 725 mmHg 90%
    02:00 +14°C° 0 mm 1 m/S 725 mmHg 92%
    03:00 +13°C° 0 mm 2 m/S 725 mmHg 93%
    04:00 +13°C° 0 mm 2 m/S 725 mmHg 94%
    05:00 +14°C° 0 mm 2 m/S 725 mmHg 93%
    06:00 +14°C° 0 mm 2 m/S 725 mmHg 92%
    07:00 +14°C° 0 mm 3 m/S 725 mmHg 91%
    08:00 +17°C° 0 mm 3 m/S 725 mmHg 85%
    09:00 +19°C° 0 mm 4 m/S 725 mmHg 79%
    10:00 +20°C° 0 mm 4 m/S 725 mmHg 74%
    11:00 +21°C° 0 mm 5 m/S 725 mmHg 71%
    12:00 +22°C° 0 mm 5 m/S 725 mmHg 68%
    13:00 +23°C° 0 mm 5 m/S 725 mmHg 66%
    14:00 +23°C° 0 mm 5 m/S 724 mmHg 66%
    15:00 +23°C° 0 mm 4 m/S 724 mmHg 67%
    16:00 +23°C° 0 mm 4 m/S 724 mmHg 67%
    17:00 +22°C° 0 mm 4 m/S 724 mmHg 72%
    18:00 +21°C° 0 mm 3 m/S 724 mmHg 76%
    19:00 +19°C° 0 mm 2 m/S 724 mmHg 81%
    20:00 +19°C° 0 mm 2 m/S 724 mmHg 82%
    21:00 +18°C° 0 mm 2 m/S 724 mmHg 83%
    22:00 +17°C° 0 mm 2 m/S 724 mmHg 84%
    23:00 +17°C° 0 mm 2 m/S 723 mmHg 86%

    24 August, Samstag

    Zeit Temperatur Niederschläge Wind Luftdruck Luftfeuchtigkeit
    00:00 +16°C° 0 mm 2 m/S 723 mmHg 88%
    01:00 +15°C° 0 mm 2 m/S 723 mmHg 90%
    02:00 +15°C° 0 mm 2 m/S 722 mmHg 92%
    03:00 +15°C° 0 mm 2 m/S 722 mmHg 93%
    04:00 +14°C° 0 mm 2 m/S 722 mmHg 94%
    05:00 +15°C° 0 mm 1 m/S 722 mmHg 93%
    06:00 +15°C° 0 mm 1 m/S 722 mmHg 92%
    07:00 +16°C° 0 mm 1 m/S 722 mmHg 90%
    08:00 +19°C° 0 mm 1 m/S 722 mmHg 86%
    09:00 +21°C° 0 mm 1 m/S 722 mmHg 81%
    10:00 +23°C° 0 mm 1 m/S 722 mmHg 76%
    11:00 +24°C° 0 mm 1 m/S 722 mmHg 73%
    12:00 +26°C° 0 mm 1 m/S 722 mmHg 70%
    13:00 +27°C° 0 mm 1 m/S 722 mmHg 66%
    14:00 +27°C° 0.1 mm 1 m/S 722 mmHg 66%
    15:00 +27°C° 0.1 mm 1 m/S 722 mmHg 66%
    16:00 +27°C° 0.1 mm 1 m/S 722 mmHg 66%
    17:00 +26°C° 0.2 mm 1 m/S 721 mmHg 73%
    18:00 +24°C° 0.2 mm 1 m/S 721 mmHg 79%
    19:00 +23°C° 0.2 mm 1 m/S 721 mmHg 86%
    20:00 +22°C° 0.2 mm 1 m/S 721 mmHg 87%
    21:00 +21°C° 0.2 mm 1 m/S 721 mmHg 88%
    22:00 +21°C° 0.2 mm 1 m/S 722 mmHg 90%
    23:00 +20°C° 0 mm 1 m/S 721 mmHg 90%

    25 August, Sonntag

    Zeit Temperatur Niederschläge Wind Luftdruck Luftfeuchtigkeit
    00:00 +20°C° 0 mm 1 m/S 721 mmHg 90%
    01:00 +19°C° 0 mm 1 m/S 721 mmHg 91%
    02:00 +19°C° 0 mm 1 m/S 721 mmHg 91%
    03:00 +19°C° 0 mm 1 m/S 721 mmHg 91%
    04:00 +18°C° 0 mm 1 m/S 721 mmHg 91%
    05:00 +19°C° 0 mm 1 m/S 721 mmHg 90%
    06:00 +19°C° 0 mm 1 m/S 721 mmHg 90%
    07:00 +20°C° 0 mm 1 m/S 721 mmHg 89%
    08:00 +22°C° 0 mm 1 m/S 721 mmHg 83%
    09:00 +24°C° 0 mm 1 m/S 721 mmHg 77%
    10:00 +25°C° 0 mm 1 m/S 722 mmHg 71%
    11:00 +26°C° 0 mm 1 m/S 721 mmHg 67%
    12:00 +28°C° 0 mm 1 m/S 721 mmHg 62%
    13:00 +29°C° 0 mm 1 m/S 721 mmHg 58%
    14:00 +29°C° 0.2 mm 1 m/S 721 mmHg 58%
    15:00 +29°C° 0.2 mm 1 m/S 721 mmHg 58%
    16:00 +29°C° 0.2 mm 1 m/S 721 mmHg 58%
    17:00 +27°C° 0.1 mm 1 m/S 721 mmHg 64%
    18:00 +25°C° 0.1 mm 1 m/S 720 mmHg 69%
    19:00 +21°C° 0.1 mm 0 m/S 720 mmHg 75%
    20:00 +20°C° 0 mm 0 m/S 720 mmHg 77%
    21:00 +19°C° 0 mm 0 m/S 721 mmHg 79%
    22:00 +19°C° 0 mm 0 m/S 721 mmHg 81%
    23:00 +20°C° 0 mm 1 m/S 721 mmHg 82%
    Mehr zeigen